| time (UTC) | temp F | wind direction | speed MPH | gust MPH | rain 1hr in | rain 24hr in | rain mn in | humidity % | barometer mb |
| 20260902034101 | 84 | 115 | 3.0 | 3.0 | 0.00 | 0.00 | 0.00 | 66 | 1013.8 |
| 20260902033600 | 85 | 139 | 2.0 | 2.0 | 0.00 | 0.00 | 0.00 | 66 | 1013.7 |
| 20260902033056 | 85 | 85 | 1.0 | 1.0 | 0.00 | 0.00 | 0.00 | 65 | 1013.7 |
| 20260902032554 | 85 | 131 | 2.0 | 2.0 | 0.00 | 0.00 | 0.00 | 65 | 1013.7 |
| 20260902032049 | 85 | 130 | 2.0 | 2.0 | 0.00 | 0.00 | 0.00 | 65 | 1013.7 |
| 20260902031543 | 85 | 113 | 2.0 | 2.0 | 0.00 | 0.00 | 0.00 | 64 | 1013.5 |
| 20260902031040 | 85 | 58 | 1.0 | 1.0 | 0.00 | 0.00 | 0.00 | 64 | 1013.4 |
| 20260902030534 | 85 | 86 | 1.0 | 1.0 | 0.00 | 0.00 | 0.00 | 64 | 1013.4 |
| 20260902030034 | 85 | 62 | 1.0 | 1.0 | 0.00 | 0.00 | 0.00 | 64 | 1013.2 |
| 20260902025529 | 86 | 92 | 2.0 | 2.0 | 0.00 | 0.00 | 0.00 | 63 | 1013.1 |
| 20260902025024 | 86 | 122 | 2.0 | 2.0 | 0.00 | 0.00 | 0.00 | 63 | 1013.1 |
| 20260902024520 | 86 | 95 | 2.0 | 2.0 | 0.00 | 0.00 | 0.00 | 63 | 1012.9 |
| 20260902024019 | 86 | 124 | 2.0 | 2.0 | 0.00 | 0.00 | 0.00 | 63 | 1013.0 |
| 20260902023515 | 86 | 56 | 2.0 | 3.0 | 0.00 | 0.00 | 0.00 | 63 | 1012.8 |
| 20260902023015 | 86 | 67 | 1.0 | 1.0 | 0.00 | 0.00 | 0.00 | 63 | 1012.5 |
| 20260902022510 | 86 | 129 | 1.0 | 2.0 | 0.00 | 0.00 | 0.00 | 63 | 1012.5 |
| 20260902022006 | 86 | 119 | 2.0 | 2.0 | 0.00 | 0.00 | 0.00 | 63 | 1012.5 |
| 20260902021501 | 86 | 91 | 1.0 | 2.0 | 0.00 | 0.00 | 0.00 | 62 | 1012.6 |
| 20260902020956 | 86 | 112 | 2.0 | 2.0 | 0.00 | 0.00 | 0.00 | 62 | 1012.5 |
| 20260902020452 | 87 | 60 | 2.0 | 2.0 | 0.00 | 0.00 | 0.00 | 62 | 1012.3 |
| 20260902015947 | 87 | 92 | 2.0 | 2.0 | 0.00 | 0.00 | 0.00 | 62 | 1012.2 |
| 20260902015443 | 87 | 92 | 1.0 | 2.0 | 0.00 | 0.00 | 0.00 | 62 | 1012.2 |
| 20260902014938 | 87 | 106 | 1.0 | 1.0 | 0.00 | 0.00 | 0.00 | 61 | 1012.4 |
| 20260902014435 | 87 | 117 | 1.0 | 2.0 | 0.00 | 0.00 | 0.00 | 61 | 1011.9 |
| 20260902013934 | 87 | 128 | 1.0 | 2.0 | 0.00 | 0.00 | 0.00 | 61 | 1012.1 |
| 20260902013430 | 87 | 96 | 1.0 | 2.0 | 0.00 | 0.00 | 0.00 | 61 | 1012.0 |
| 20260902012925 | 88 | 106 | 2.0 | 2.0 | 0.00 | 0.00 | 0.00 | 60 | 1012.1 |
| 20260902012420 | 88 | 76 | 1.0 | 1.0 | 0.00 | 0.00 | 0.00 | 60 | 1011.9 |
| 20260902011916 | 88 | 152 | 1.0 | 3.0 | 0.00 | 0.00 | 0.00 | 59 | 1011.8 |
| 20260902011411 | 89 | 107 | 1.0 | 1.0 | 0.00 | 0.00 | 0.00 | 59 | 1011.9 |
| 20260902010910 | 89 | 146 | 3.0 | 3.0 | 0.00 | 0.00 | 0.00 | 59 | 1011.6 |
| 20260902010405 | 89 | 83 | 2.0 | 2.0 | 0.00 | 0.00 | 0.00 | 58 | 1011.7 |
| 20260902005904 | 89 | 99 | 1.0 | 2.0 | 0.00 | 0.00 | 0.00 | 58 | 1011.5 |
| 20260902005358 | 90 | 105 | 2.0 | 2.0 | 0.00 | 0.00 | 0.00 | 57 | 1011.8 |
| 20260902004855 | 90 | 84 | 1.0 | 2.0 | 0.00 | 0.00 | 0.00 | 56 | 1011.7 |
| 20260902004354 | 91 | 138 | 2.0 | 3.0 | 0.00 | 0.00 | 0.00 | 56 | 1011.5 |
| 20260902003849 | 91 | 117 | 3.0 | 3.0 | 0.00 | 0.00 | 0.00 | 55 | 1011.7 |
| 20260902003344 | 91 | 77 | 3.0 | 3.0 | 0.00 | 0.00 | 0.00 | 54 | 1011.8 |
| 20260902002840 | 92 | 162 | 3.0 | 5.0 | 0.00 | 0.00 | 0.00 | 52 | 1011.8 |
| 20260902002339 | 92 | 104 | 2.0 | 2.0 | 0.00 | 0.00 | 0.00 | 50 | 1011.7 |
| 20260902001834 | 93 | 109 | 1.0 | 2.0 | 0.00 | 0.00 | 0.00 | 49 | 1011.8 |
| 20260902001329 | 93 | 91 | 1.0 | 1.0 | 0.00 | 0.00 | 0.00 | 48 | 1011.5 |
| 20260902000824 | 94 | 129 | 1.0 | 2.0 | 0.00 | 0.00 | 0.00 | 47 | 1011.7 |
| 20260902000322 | 94 | 44 | 1.0 | 1.0 | 0.00 | 0.00 | 0.00 | 47 | 1011.8 |
| 20260901235814 | 95 | 84 | 1.0 | 1.0 | 0.00 | 0.00 | 0.00 | 46 | 1011.8 |
| 20260901235308 | 95 | 48 | 0.0 | 1.0 | 0.00 | 0.00 | 0.00 | 46 | 1011.7 |
| 20260901234808 | 96 | 134 | 2.0 | 2.0 | 0.00 | 0.00 | 0.00 | 46 | 1011.7 |
| 20260901234303 | 96 | 81 | 1.0 | 1.0 | 0.00 | 0.00 | 0.00 | 46 | 1011.7 |
| 20260901233758 | 96 | 98 | 1.0 | 1.0 | 0.00 | 0.00 | 0.00 | 47 | 1011.8 |
| 20260901233253 | 96 | 143 | 2.0 | 2.0 | 0.00 | 0.00 | 0.00 | 46 | 1011.7 |
| 20260901232749 | 95 | 102 | 1.0 | 1.0 | 0.00 | 0.00 | 0.00 | 46 | 1011.6 |
| 20260901232244 | 96 | 155 | 3.0 | 5.0 | 0.00 | 0.00 | 0.00 | 46 | 1011.6 |
| 20260901231740 | 96 | 145 | 3.0 | 5.0 | 0.00 | 0.00 | 0.00 | 46 | 1011.8 |
| 20260901231236 | 95 | 133 | 1.0 | 2.0 | 0.00 | 0.00 | 0.00 | 47 | 1011.6 |
| 20260901230731 | 95 | 136 | 3.0 | 3.0 | 0.00 | 0.00 | 0.00 | 48 | 1011.7 |
| 20260901230225 | 96 | 86 | 1.0 | 1.0 | 0.00 | 0.00 | 0.00 | 46 | 1011.8 |
| 20260901225721 | 96 | 54 | 0.0 | 0.0 | 0.00 | 0.00 | 0.00 | 45 | 1011.8 |
| 20260901225215 | 96 | 68 | 1.0 | 1.0 | 0.00 | 0.00 | 0.00 | 46 | 1011.7 |
| 20260901224711 | 94 | 70 | 1.0 | 1.0 | 0.00 | 0.00 | 0.00 | 49 | 1011.9 |
| 20260901224207 | 95 | 77 | 1.0 | 1.0 | 0.00 | 0.00 | 0.00 | 48 | 1011.8 |
| 20260901223703 | 95 | 105 | 1.0 | 1.0 | 0.00 | 0.00 | 0.00 | 47 | 1011.6 |
| 20260901223158 | 96 | 168 | 2.0 | 2.0 | 0.00 | 0.00 | 0.00 | 45 | 1011.8 |
| 20260901222654 | 96 | 63 | 2.0 | 3.0 | 0.00 | 0.00 | 0.00 | 46 | 1011.7 |
| 20260901222150 | 98 | 117 | 0.0 | 1.0 | 0.00 | 0.00 | 0.00 | 43 | 1011.6 |
| 20260901221646 | 100 | 116 | 1.0 | 2.0 | 0.00 | 0.00 | 0.00 | 43 | 1011.5 |
| 20260901221141 | 100 | 52 | 1.0 | 1.0 | 0.00 | 0.00 | 0.00 | 41 | 1011.5 |
| 20260901220640 | 99 | 25 | 1.0 | 1.0 | 0.00 | 0.00 | 0.00 | 41 | 1011.7 |
| 20260901220139 | 100 | 179 | 5.0 | 7.0 | 0.00 | 0.00 | 0.00 | 42 | 1011.5 |
| 20260901215638 | 99 | 136 | 2.0 | 2.0 | 0.00 | 0.00 | 0.00 | 42 | 1011.9 |
| 20260901215133 | 100 | 127 | 3.0 | 5.0 | 0.00 | 0.00 | 0.00 | 42 | 1011.9 |
| 20260901214630 | 101 | 88 | 3.0 | 5.0 | 0.00 | 0.00 | 0.00 | 41 | 1011.8 |
| 20260901214125 | 99 | 23 | 1.0 | 1.0 | 0.00 | 0.00 | 0.00 | 42 | 1012.1 |
| 20260901213625 | 98 | 297 | 3.0 | 3.0 | 0.00 | 0.00 | 0.00 | 43 | 1011.9 |
| 20260901213120 | 99 | 170 | 1.0 | 1.0 | 0.00 | 0.00 | 0.00 | 42 | 1012.0 |
| 20260901212619 | 98 | 33 | 0.0 | 0.0 | 0.00 | 0.00 | 0.00 | 42 | 1012.2 |
| 20260901212116 | 98 | 164 | 3.0 | 3.0 | 0.00 | 0.00 | 0.00 | 44 | 1012.2 |
| 20260901211610 | 96 | 204 | 2.0 | 2.0 | 0.00 | 0.00 | 0.00 | 45 | 1012.2 |
| 20260901211107 | 97 | 112 | 3.0 | 3.0 | 0.00 | 0.00 | 0.00 | 44 | 1012.2 |
| 20260901210602 | 96 | 138 | 3.0 | 3.0 | 0.00 | 0.00 | 0.00 | 46 | 1012.2 |
| 20260901210058 | 100 | 18 | 2.0 | 2.0 | 0.00 | 0.00 | 0.00 | 42 | 1012.3 |
| 20260901205554 | 99 | 67 | 2.0 | 2.0 | 0.00 | 0.00 | 0.00 | 42 | 1012.4 |
| 20260901205053 | 99 | 104 | 3.0 | 5.0 | 0.00 | 0.00 | 0.00 | 43 | 1012.5 |
| 20260901204550 | 97 | 44 | 1.0 | 2.0 | 0.00 | 0.00 | 0.00 | 45 | 1012.6 |
| 20260901204044 | 98 | 38 | 1.0 | 1.0 | 0.00 | 0.00 | 0.00 | 44 | 1012.5 |
| 20260901203539 | 98 | 157 | 2.0 | 3.0 | 0.00 | 0.00 | 0.00 | 43 | 1013.0 |
| 20260901203034 | 99 | 143 | 4.0 | 5.0 | 0.00 | 0.00 | 0.00 | 42 | 1012.9 |
| 20260901202528 | 98 | 307 | 2.0 | 2.0 | 0.00 | 0.00 | 0.00 | 43 | 1013.0 |
| 20260901202025 | 98 | 92 | 0.0 | 1.0 | 0.00 | 0.00 | 0.00 | 44 | 1013.3 |
| 20260901201520 | 98 | 119 | 4.0 | 5.0 | 0.00 | 0.00 | 0.00 | 44 | 1013.3 |
| 20260901201014 | 97 | 49 | 4.0 | 6.0 | 0.00 | 0.00 | 0.00 | 44 | 1013.1 |
| 20260901200514 | 96 | 140 | 3.0 | 3.0 | 0.00 | 0.00 | 0.00 | 45 | 1013.2 |
| 20260901200009 | 93 | 158 | 3.0 | 3.0 | 0.00 | 0.00 | 0.00 | 48 | 1013.4 |
| 20260901195506 | 93 | 86 | 3.0 | 5.0 | 0.00 | 0.00 | 0.00 | 51 | 1013.6 |
| 20260901195006 | 93 | 68 | 2.0 | 2.0 | 0.00 | 0.00 | 0.00 | 51 | 1013.5 |
| 20260901194501 | 95 | 150 | 6.0 | 8.0 | 0.00 | 0.00 | 0.00 | 50 | 1013.4 |
| 20260901193956 | 96 | 17 | 2.0 | 3.0 | 0.00 | 0.00 | 0.00 | 47 | 1013.6 |
| 20260901193451 | 94 | 143 | 4.0 | 6.0 | 0.00 | 0.00 | 0.00 | 48 | 1013.6 |
| 20260901192950 | 93 | 49 | 1.0 | 2.0 | 0.00 | 0.00 | 0.00 | 50 | 1013.8 |
| 20260901192447 | 93 | 113 | 3.0 | 3.0 | 0.00 | 0.00 | 0.00 | 51 | 1013.7 |
| 20260901191942 | 93 | 7 | 4.0 | 5.0 | 0.00 | 0.00 | 0.00 | 50 | 1013.9 |
| 20260901191438 | 95 | 267 | 2.0 | 2.0 | 0.00 | 0.00 | 0.00 | 49 | 1014.0 |
| 20260901190933 | 95 | 95 | 1.0 | 1.0 | 0.00 | 0.00 | 0.00 | 49 | 1013.8 |
| 20260901190428 | 93 | 102 | 2.0 | 2.0 | 0.00 | 0.00 | 0.00 | 50 | 1014.1 |
| 20260901185926 | 94 | 130 | 4.0 | 6.0 | 0.00 | 0.00 | 0.00 | 49 | 1014.1 |
| 20260901185426 | 95 | 126 | 1.0 | 2.0 | 0.00 | 0.00 | 0.00 | 48 | 1014.1 |
| 20260901184920 | 96 | 151 | 7.0 | 8.0 | 0.00 | 0.00 | 0.00 | 48 | 1014.1 |
| 20260901184416 | 96 | 104 | 7.0 | 8.0 | 0.00 | 0.00 | 0.00 | 47 | 1014.4 |
| 20260901183911 | 97 | 157 | 2.0 | 2.0 | 0.00 | 0.00 | 0.00 | 47 | 1014.6 |
| 20260901183410 | 96 | 84 | 2.0 | 3.0 | 0.00 | 0.00 | 0.00 | 47 | 1014.5 |
| 20260901182907 | 97 | 159 | 3.0 | 3.0 | 0.00 | 0.00 | 0.00 | 47 | 1014.3 |
| 20260901182402 | 93 | 125 | 1.0 | 1.0 | 0.00 | 0.00 | 0.00 | 48 | 1014.5 |
| 20260901181857 | 95 | 310 | 2.0 | 3.0 | 0.00 | 0.00 | 0.00 | 46 | 1014.6 |
| 20260901181357 | 94 | 301 | 1.0 | 2.0 | 0.00 | 0.00 | 0.00 | 46 | 1014.8 |
| 20260901180855 | 96 | 57 | 1.0 | 2.0 | 0.00 | 0.00 | 0.00 | 45 | 1015.0 |
| 20260901180355 | 96 | 138 | 2.0 | 3.0 | 0.00 | 0.00 | 0.00 | 45 | 1015.0 |
| 20260901175853 | 96 | 106 | 2.0 | 2.0 | 0.00 | 0.00 | 0.00 | 45 | 1015.0 |
| 20260901175348 | 95 | 101 | 6.0 | 7.0 | 0.00 | 0.00 | 0.00 | 46 | 1015.2 |
| 20260901174843 | 96 | 118 | 3.0 | 5.0 | 0.00 | 0.00 | 0.00 | 46 | 1015.1 |
| 20260901174339 | 95 | 18 | 2.0 | 2.0 | 0.00 | 0.00 | 0.00 | 47 | 1015.3 |
| 20260901173835 | 95 | 53 | 1.0 | 2.0 | 0.00 | 0.00 | 0.00 | 47 | 1015.4 |
| 20260901173330 | 94 | 108 | 7.0 | 8.0 | 0.00 | 0.00 | 0.00 | 49 | 1015.3 |
| 20260901172826 | 95 | 149 | 11.0 | 11.0 | 0.00 | 0.00 | 0.00 | 49 | 1015.3 |
| 20260901172325 | 95 | 73 | 0.0 | 1.0 | 0.00 | 0.00 | 0.00 | 50 | 1015.4 |
| 20260901171823 | 94 | 64 | 1.0 | 1.0 | 0.00 | 0.00 | 0.00 | 51 | 1015.4 |
| 20260901171323 | 92 | 357 | 1.0 | 1.0 | 0.00 | 0.00 | 0.00 | 53 | 1015.5 |
| 20260901170817 | 92 | 49 | 1.0 | 2.0 | 0.00 | 0.00 | 0.00 | 53 | 1015.5 |
| 20260901170317 | 92 | 76 | 4.0 | 6.0 | 0.00 | 0.00 | 0.00 | 53 | 1015.9 |
| 20260901165815 | 92 | 47 | 2.0 | 2.0 | 0.00 | 0.00 | 0.00 | 53 | 1015.5 |
| 20260901165310 | 92 | 47 | 3.0 | 5.0 | 0.00 | 0.00 | 0.00 | 52 | 1016.0 |
| 20260901164807 | 92 | 136 | 2.0 | 3.0 | 0.00 | 0.00 | 0.00 | 54 | 1015.8 |
| 20260901164302 | 93 | 117 | 8.0 | 11.0 | 0.00 | 0.00 | 0.00 | 53 | 1015.9 |
| 20260901163756 | 92 | 116 | 3.0 | 3.0 | 0.00 | 0.00 | 0.00 | 54 | 1015.9 |
| 20260901163251 | 92 | 75 | 5.0 | 7.0 | 0.00 | 0.00 | 0.00 | 53 | 1016.0 |
| 20260901162746 | 91 | 110 | 4.0 | 6.0 | 0.00 | 0.00 | 0.00 | 55 | 1015.8 |
| 20260901162245 | 91 | 253 | 6.0 | 7.0 | 0.00 | 0.00 | 0.00 | 53 | 1016.0 |
| 20260901161744 | 90 | 121 | 5.0 | 6.0 | 0.00 | 0.00 | 0.00 | 55 | 1016.1 |
| 20260901161239 | 91 | 144 | 6.0 | 8.0 | 0.00 | 0.00 | 0.00 | 57 | 1016.2 |
| 20260901160735 | 90 | 141 | 6.0 | 7.0 | 0.00 | 0.00 | 0.00 | 60 | 1015.9 |
| 20260901160231 | 89 | 41 | 0.0 | 0.0 | 0.00 | 0.00 | 0.00 | 58 | 1016.1 |
| 20260901155730 | 89 | 157 | 3.0 | 5.0 | 0.00 | 0.00 | 0.00 | 59 | 1016.1 |
| 20260901155225 | 88 | 78 | 1.0 | 2.0 | 0.00 | 0.00 | 0.00 | 62 | 1016.2 |
| 20260901154720 | 89 | 164 | 2.0 | 2.0 | 0.00 | 0.00 | 0.00 | 61 | 1016.2 |
| 20260901154215 | 89 | 141 | 1.0 | 1.0 | 0.00 | 0.00 | 0.00 | 61 | 1016.0 |
| 20260901153710 | 89 | 56 | 0.0 | 0.0 | 0.00 | 0.00 | 0.00 | 63 | 1016.0 |
| 20260901153209 | 88 | 52 | 0.0 | 1.0 | 0.00 | 0.00 | 0.00 | 63 | 1015.9 |
| 20260901152704 | 87 | 62 | 0.0 | 1.0 | 0.00 | 0.00 | 0.00 | 64 | 1016.0 |
| 20260901152203 | 86 | 45 | 2.0 | 3.0 | 0.00 | 0.00 | 0.00 | 68 | 1016.1 |
| 20260901151658 | 87 | 180 | 3.0 | 3.0 | 0.00 | 0.00 | 0.00 | 67 | 1015.9 |
| 20260901151152 | 86 | 78 | 1.0 | 2.0 | 0.00 | 0.00 | 0.00 | 68 | 1015.9 |
| 20260901150652 | 86 | 74 | 1.0 | 2.0 | 0.00 | 0.00 | 0.00 | 71 | 1015.9 |
| 20260901150150 | 85 | 150 | 1.0 | 1.0 | 0.00 | 0.00 | 0.00 | 73 | 1016.2 |
| 20260901145647 | 84 | 144 | 2.0 | 2.0 | 0.00 | 0.00 | 0.00 | 75 | 1016.0 |
| 20260901145142 | 83 | 243 | 0.0 | 0.0 | 0.00 | 0.00 | 0.00 | 76 | 1016.1 |
| 20260901144637 | 83 | 45 | 1.0 | 1.0 | 0.00 | 0.00 | 0.00 | 77 | 1016.0 |
| 20260901144133 | 83 | 34 | 1.0 | 1.0 | 0.00 | 0.00 | 0.00 | 77 | 1015.9 |
| 20260901143628 | 83 | 58 | 0.0 | 0.0 | 0.00 | 0.00 | 0.00 | 77 | 1015.9 |
| 20260901143124 | 82 | 182 | 2.0 | 3.0 | 0.00 | 0.00 | 0.00 | 78 | 1015.9 |
| 20260901142619 | 82 | 81 | 1.0 | 1.0 | 0.00 | 0.00 | 0.00 | 80 | 1015.9 |
| 20260901142119 | 81 | 111 | 1.0 | 1.0 | 0.00 | 0.00 | 0.00 | 81 | 1016.0 |
| 20260901141613 | 80 | 43 | 1.0 | 2.0 | 0.00 | 0.00 | 0.00 | 83 | 1016.0 |
| 20260901141108 | 80 | 75 | 1.0 | 1.0 | 0.00 | 0.00 | 0.00 | 86 | 1016.0 |
| 20260901140608 | 80 | 72 | 2.0 | 2.0 | 0.00 | 0.00 | 0.00 | 87 | 1016.0 |
| 20260901140107 | 79 | 50 | 1.0 | 1.0 | 0.00 | 0.00 | 0.00 | 88 | 1015.8 |
| 20260901135606 | 79 | 104 | 1.0 | 2.0 | 0.00 | 0.00 | 0.00 | 89 | 1015.9 |
| 20260901135101 | 78 | 61 | 0.0 | 1.0 | 0.00 | 0.00 | 0.00 | 91 | 1015.7 |
| 20260901134558 | 79 | 52 | 0.0 | 0.0 | 0.00 | 0.00 | 0.00 | 92 | 1015.8 |
| 20260901134052 | 78 | 89 | 1.0 | 1.0 | 0.00 | 0.00 | 0.00 | 93 | 1016.0 |
| 20260901133551 | 78 | 98 | 1.0 | 2.0 | 0.00 | 0.00 | 0.00 | 94 | 1015.8 |
| 20260901133050 | 77 | 88 | 1.0 | 1.0 | 0.00 | 0.00 | 0.00 | 95 | 1016.0 |
| 20260901132545 | 77 | 81 | 1.0 | 1.0 | 0.00 | 0.00 | 0.00 | 95 | 1015.9 |
| 20260901132045 | 77 | 60 | 0.0 | 0.0 | 0.00 | 0.00 | 0.00 | 96 | 1015.5 |
| 20260901131539 | 76 | 63 | 0.0 | 0.0 | 0.00 | 0.00 | 0.00 | 96 | 1015.7 |
| 20260901131034 | 76 | 71 | 0.0 | 1.0 | 0.00 | 0.00 | 0.00 | 96 | 1015.4 |
| 20260901130534 | 76 | 62 | 0.0 | 1.0 | 0.00 | 0.00 | 0.00 | 96 | 1015.4 |
| 20260901130033 | 75 | 56 | 0.0 | 0.0 | 0.00 | 0.00 | 0.00 | 96 | 1015.4 |
| 20260901125531 | 75 | 53 | 0.0 | 0.0 | 0.00 | 0.00 | 0.00 | 96 | 1015.4 |
| 20260901125027 | 75 | 51 | 0.0 | 0.0 | 0.00 | 0.00 | 0.00 | 96 | 1015.5 |
| 20260901124521 | 74 | 57 | 0.0 | 0.0 | 0.00 | 0.00 | 0.00 | 96 | 1015.4 |
| 20260901124021 | 75 | 61 | 0.0 | 0.0 | 0.00 | 0.00 | 0.00 | 96 | 1015.2 |
| 20260901123516 | 75 | 56 | 0.0 | 0.0 | 0.00 | 0.00 | 0.00 | 96 | 1015.1 |
| 20260901123016 | 75 | 52 | 0.0 | 0.0 | 0.00 | 0.00 | 0.00 | 96 | 1015.2 |
| 20260901122514 | 75 | 56 | 0.0 | 0.0 | 0.00 | 0.00 | 0.00 | 96 | 1015.1 |
| 20260901122014 | 75 | 55 | 0.0 | 0.0 | 0.00 | 0.00 | 0.00 | 96 | 1015.3 |
| 20260901121508 | 75 | 61 | 0.0 | 0.0 | 0.00 | 0.00 | 0.00 | 96 | 1015.1 |
| 20260901121003 | 75 | 49 | 0.0 | 1.0 | 0.00 | 0.00 | 0.00 | 96 | 1015.2 |
| 20260901120458 | 75 | 62 | 0.0 | 0.0 | 0.00 | 0.00 | 0.00 | 96 | 1015.2 |
| 20260901115953 | 75 | 46 | 1.0 | 1.0 | 0.00 | 0.00 | 0.00 | 96 | 1015.0 |
| 20260901115448 | 75 | 87 | 1.0 | 1.0 | 0.00 | 0.00 | 0.00 | 96 | 1014.9 |
| 20260901114946 | 75 | 65 | 0.0 | 1.0 | 0.00 | 0.00 | 0.00 | 96 | 1015.1 |
| 20260901114441 | 75 | 34 | 1.0 | 1.0 | 0.00 | 0.00 | 0.00 | 96 | 1014.9 |
| 20260901113939 | 75 | 248 | 1.0 | 2.0 | 0.00 | 0.00 | 0.00 | 96 | 1014.9 |
| 20260901113438 | 75 | 68 | 1.0 | 1.0 | 0.00 | 0.00 | 0.00 | 96 | 1014.9 |
| 20260901112933 | 75 | 287 | 1.0 | 2.0 | 0.00 | 0.00 | 0.00 | 96 | 1015.1 |
| 20260901112429 | 75 | 51 | 1.0 | 2.0 | 0.00 | 0.00 | 0.00 | 96 | 1015.0 |
| 20260901111918 | 75 | 40 | 1.0 | 1.0 | 0.00 | 0.00 | 0.00 | 96 | 1014.8 |
| 20260901111416 | 75 | 80 | 0.0 | 0.0 | 0.00 | 0.00 | 0.00 | 96 | 1015.1 |
| 20260901110915 | 75 | 50 | 0.0 | 0.0 | 0.00 | 0.00 | 0.00 | 96 | 1014.8 |
| 20260901110411 | 75 | 2 | 1.0 | 2.0 | 0.00 | 0.00 | 0.00 | 96 | 1015.0 |
| 20260901105907 | 75 | 65 | 0.0 | 1.0 | 0.00 | 0.00 | 0.00 | 96 | 1015.2 |
| 20260901105403 | 75 | 69 | 1.0 | 1.0 | 0.00 | 0.00 | 0.00 | 95 | 1015.1 |
| 20260901104858 | 75 | 101 | 1.0 | 1.0 | 0.00 | 0.00 | 0.00 | 95 | 1015.1 |
| 20260901104353 | 75 | 62 | 0.0 | 0.0 | 0.00 | 0.00 | 0.00 | 95 | 1015.3 |
| 20260901103848 | 75 | 59 | 0.0 | 0.0 | 0.00 | 0.00 | 0.00 | 95 | 1015.0 |
| 20260901103343 | 75 | 56 | 0.0 | 0.0 | 0.00 | 0.00 | 0.00 | 95 | 1015.1 |
| 20260901102838 | 75 | 58 | 0.0 | 0.0 | 0.00 | 0.00 | 0.00 | 95 | 1015.2 |
| 20260901102338 | 75 | 71 | 0.0 | 0.0 | 0.00 | 0.00 | 0.00 | 95 | 1015.2 |
| 20260901101833 | 75 | 49 | 0.0 | 0.0 | 0.00 | 0.00 | 0.00 | 95 | 1015.1 |
| 20260901101333 | 75 | 72 | 0.0 | 1.0 | 0.00 | 0.00 | 0.00 | 94 | 1015.2 |
| 20260901100827 | 75 | 60 | 0.0 | 0.0 | 0.00 | 0.00 | 0.00 | 95 | 1015.0 |
| 20260901100322 | 75 | 67 | 0.0 | 0.0 | 0.00 | 0.00 | 0.00 | 94 | 1014.9 |
| 20260901095821 | 75 | 47 | 1.0 | 1.0 | 0.00 | 0.00 | 0.00 | 94 | 1014.9 |
| 20260901095318 | 75 | 54 | 0.0 | 0.0 | 0.00 | 0.00 | 0.00 | 94 | 1014.8 |
| 20260901094813 | 75 | 71 | 0.0 | 1.0 | 0.00 | 0.00 | 0.00 | 94 | 1014.7 |
| 20260901094308 | 76 | 164 | 1.0 | 1.0 | 0.00 | 0.00 | 0.00 | 94 | 1014.9 |
| 20260901093803 | 76 | 136 | 2.0 | 3.0 | 0.00 | 0.00 | 0.00 | 94 | 1014.8 |
| 20260901093301 | 76 | 40 | 1.0 | 1.0 | 0.00 | 0.00 | 0.00 | 94 | 1014.8 |
| 20260901092758 | 76 | 350 | 1.0 | 1.0 | 0.00 | 0.00 | 0.00 | 94 | 1014.9 |
| 20260901092254 | 76 | 76 | 1.0 | 1.0 | 0.00 | 0.00 | 0.00 | 94 | 1015.1 |
| 20260901091749 | 76 | 62 | 0.0 | 0.0 | 0.00 | 0.00 | 0.00 | 93 | 1015.1 |
| 20260901091244 | 76 | 196 | 2.0 | 2.0 | 0.00 | 0.00 | 0.00 | 93 | 1015.1 |
| 20260901090744 | 76 | 110 | 1.0 | 1.0 | 0.00 | 0.00 | 0.00 | 93 | 1015.3 |
| 20260901090239 | 76 | 110 | 1.0 | 2.0 | 0.00 | 0.00 | 0.00 | 93 | 1015.1 |
| 20260901085735 | 76 | 126 | 2.0 | 2.0 | 0.00 | 0.00 | 0.00 | 93 | 1015.1 |
| 20260901085230 | 76 | 33 | 1.0 | 1.0 | 0.00 | 0.00 | 0.00 | 92 | 1015.0 |
| 20260901084726 | 76 | 166 | 2.0 | 2.0 | 0.00 | 0.00 | 0.00 | 92 | 1015.4 |
| 20260901084222 | 76 | 150 | 0.0 | 1.0 | 0.00 | 0.00 | 0.00 | 92 | 1015.4 |
| 20260901083717 | 76 | 82 | 0.0 | 1.0 | 0.00 | 0.00 | 0.00 | 91 | 1015.1 |
| 20260901083216 | 76 | 75 | 1.0 | 1.0 | 0.00 | 0.00 | 0.00 | 91 | 1015.3 |
| 20260901082715 | 76 | 290 | 1.0 | 1.0 | 0.00 | 0.00 | 0.00 | 90 | 1015.0 |
| 20260901082211 | 76 | 58 | 1.0 | 1.0 | 0.00 | 0.00 | 0.00 | 90 | 1015.0 |
| 20260901081706 | 76 | 85 | 1.0 | 1.0 | 0.00 | 0.00 | 0.00 | 90 | 1015.1 |
| 20260901081206 | 76 | 108 | 1.0 | 2.0 | 0.00 | 0.00 | 0.00 | 89 | 1015.4 |
| 20260901080701 | 76 | 71 | 0.0 | 1.0 | 0.00 | 0.00 | 0.00 | 89 | 1015.2 |
| 20260901080159 | 76 | 68 | 1.0 | 2.0 | 0.00 | 0.00 | 0.00 | 89 | 1015.4 |
| 20260901075654 | 77 | 117 | 1.0 | 1.0 | 0.00 | 0.00 | 0.00 | 88 | 1015.2 |
| 20260901075149 | 77 | 88 | 0.0 | 0.0 | 0.00 | 0.00 | 0.00 | 88 | 1015.4 |
| 20260901074648 | 77 | 129 | 1.0 | 1.0 | 0.00 | 0.00 | 0.00 | 88 | 1015.2 |
| 20260901074144 | 77 | 56 | 1.0 | 2.0 | 0.00 | 0.00 | 0.00 | 87 | 1015.0 |
| 20260901073640 | 77 | 85 | 1.0 | 1.0 | 0.00 | 0.00 | 0.00 | 87 | 1015.1 |
| 20260901073135 | 77 | 83 | 1.0 | 1.0 | 0.00 | 0.00 | 0.00 | 86 | 1015.4 |
| 20260901072631 | 77 | 110 | 1.0 | 1.0 | 0.00 | 0.00 | 0.00 | 86 | 1015.2 |
| 20260901072125 | 77 | 78 | 0.0 | 1.0 | 0.00 | 0.00 | 0.00 | 85 | 1015.1 |
| 20260901071620 | 77 | 72 | 2.0 | 2.0 | 0.00 | 0.00 | 0.00 | 85 | 1015.0 |
| 20260901071119 | 78 | 92 | 1.0 | 1.0 | 0.00 | 0.00 | 0.00 | 85 | 1015.0 |
| 20260901070613 | 78 | 221 | 3.0 | 5.0 | 0.00 | 0.00 | 0.00 | 84 | 1015.0 |
| 20260901070109 | 78 | 50 | 1.0 | 1.0 | 0.00 | 0.00 | 0.00 | 84 | 1015.0 |
| 20260901065602 | 78 | 93 | 1.0 | 1.0 | 0.00 | 0.00 | 0.00 | 83 | 1015.1 |
| 20260901065057 | 78 | 62 | 2.0 | 2.0 | 0.00 | 0.00 | 0.00 | 83 | 1014.8 |
| 20260901064554 | 78 | 199 | 3.0 | 3.0 | 0.00 | 0.00 | 0.00 | 83 | 1014.7 |
| 20260901064050 | 78 | 107 | 2.0 | 2.0 | 0.00 | 0.00 | 0.00 | 82 | 1014.9 |
| 20260901063547 | 79 | 145 | 1.0 | 2.0 | 0.00 | 0.00 | 0.00 | 82 | 1015.0 |
| 20260901063043 | 79 | 130 | 2.0 | 2.0 | 0.00 | 0.00 | 0.00 | 81 | 1015.0 |
| 20260901062538 | 79 | 57 | 1.0 | 1.0 | 0.00 | 0.00 | 0.00 | 81 | 1014.8 |
| 20260901062034 | 79 | 75 | 2.0 | 2.0 | 0.00 | 0.00 | 0.00 | 80 | 1015.0 |
| 20260901061531 | 79 | 163 | 3.0 | 3.0 | 0.00 | 0.00 | 0.00 | 80 | 1015.0 |
| 20260901061031 | 79 | 123 | 2.0 | 3.0 | 0.00 | 0.00 | 0.00 | 80 | 1014.7 |
| 20260901060525 | 79 | 114 | 1.0 | 1.0 | 0.00 | 0.00 | 0.00 | 79 | 1014.9 |
| 20260901060020 | 80 | 98 | 1.0 | 2.0 | 0.00 | 0.00 | 0.00 | 78 | 1014.9 |
| 20260901055515 | 80 | 92 | 1.0 | 2.0 | 0.00 | 0.00 | 0.00 | 78 | 1014.6 |
| 20260901055012 | 80 | 121 | 2.0 | 2.0 | 0.00 | 0.00 | 0.00 | 77 | 1014.7 |
| 20260901054509 | 80 | 151 | 3.0 | 3.0 | 0.00 | 0.00 | 0.00 | 77 | 1014.7 |
| 20260901054005 | 80 | 108 | 1.0 | 2.0 | 0.00 | 0.00 | 0.00 | 77 | 1014.6 |
| 20260901053500 | 80 | 69 | 3.0 | 5.0 | 0.00 | 0.00 | 0.00 | 77 | 1014.7 |
| 20260901052956 | 80 | 71 | 1.0 | 2.0 | 0.00 | 0.00 | 0.00 | 77 | 1014.4 |
| 20260901052452 | 81 | 83 | 2.0 | 2.0 | 0.00 | 0.00 | 0.00 | 76 | 1014.6 |
| 20260901051950 | 81 | 136 | 2.0 | 2.0 | 0.00 | 0.00 | 0.00 | 76 | 1014.6 |
| 20260901051446 | 81 | 92 | 2.0 | 2.0 | 0.00 | 0.00 | 0.00 | 75 | 1014.6 |
| 20260901050945 | 81 | 101 | 2.0 | 2.0 | 0.00 | 0.00 | 0.00 | 75 | 1014.7 |
| 20260901050440 | 82 | 141 | 2.0 | 2.0 | 0.00 | 0.00 | 0.00 | 74 | 1014.7 |
| 20260901045935 | 82 | 107 | 3.0 | 3.0 | 0.00 | 0.00 | 0.00 | 74 | 1014.3 |
| 20260901045430 | 82 | 193 | 4.0 | 6.0 | 0.00 | 0.00 | 0.00 | 73 | 1014.7 |
| 20260901044925 | 82 | 99 | 3.0 | 3.0 | 0.00 | 0.00 | 0.00 | 72 | 1014.6 |
| 20260901044421 | 82 | 167 | 3.0 | 3.0 | 0.00 | 0.00 | 0.00 | 72 | 1014.7 |
| 20260901043916 | 82 | 140 | 2.0 | 5.0 | 0.00 | 0.00 | 0.00 | 71 | 1014.4 |
| 20260901043412 | 82 | 59 | 2.0 | 3.0 | 0.00 | 0.00 | 0.00 | 70 | 1014.4 |
| 20260901042906 | 83 | 65 | 2.0 | 3.0 | 0.00 | 0.00 | 0.00 | 69 | 1014.2 |
| 20260901042401 | 83 | 113 | 2.0 | 2.0 | 0.00 | 0.00 | 0.00 | 69 | 1014.3 |
| 20260901041857 | 83 | 152 | 3.0 | 3.0 | 0.00 | 0.00 | 0.00 | 69 | 1014.5 |
| 20260901041351 | 83 | 113 | 3.0 | 5.0 | 0.00 | 0.00 | 0.00 | 68 | 1014.4 |
| 20260901040846 | 83 | 124 | 3.0 | 5.0 | 0.00 | 0.00 | 0.00 | 67 | 1014.5 |
| 20260901040345 | 84 | 109 | 3.0 | 5.0 | 0.00 | 0.00 | 0.00 | 67 | 1014.4 |
| 20260901035844 | 84 | 136 | 3.0 | 3.0 | 0.00 | 0.00 | 0.00 | 67 | 1014.4 |
| 20260901035343 | 84 | 87 | 2.0 | 2.0 | 0.00 | 0.00 | 0.00 | 66 | 1014.2 |
| 20260901034842 | 84 | 202 | 3.0 | 5.0 | 0.00 | 0.00 | 0.00 | 66 | 1014.3 |